Weather History for Destin, FL

Change the Weather History Date:

Wednesday, March 13, 2013

  Actual Average Record
Temperature  
Mean Temperature 58 °F -  
Max Temperature 69 °F 65 °F 78 °F (2001)
Min Temperature 48 °F 52 °F 36 °F (1998)
Degree Days  
Heating Degree Days 7    
Growing Degree Days 8 (Base 50)    
Moisture  
Dew Point 31 °F    
Average Humidity 39    
Maximum Humidity 64    
Minimum Humidity 19    
Precipitation  
Precipitation 0.00 in - - ()
Sea Level Pressure  
Sea Level Pressure 30.24 in    
Wind  
Wind Speed 9 mph (NNW)    
Max Wind Speed 17 mph    
Max Gust Speed 25 mph    
Visibility 10 miles    
Events      
Averages and records for this station are not official NWS values.
T = Trace of Precipitation, MM = Missing Value Source: NWS Daily Summary

Daily Weather History Graph

Daily Weather History Graph

Search for Another Location

Airport:

Trip Planner

Search our weather history database for the weather conditions in past years. The results will help you decide how hot, cold, wet, or windy it might be!

Date:

Astronomy

Mar. 13, 2013 Rise Set
Actual Time 6:57 AM CDT 6:53 PM CDT
Civil Twilight 6:33 AM CDT 7:16 PM CDT
Nautical Twilight 6:06 AM CDT 7:44 PM CDT
Astronomical Twilight 5:38 AM CDT 8:12 PM CDT
Moon 7:48 AM CDT (3/13) 8:56 PM CDT (3/13)
Length of Visible Light 12h 43m
Length of Day
11h 55m
Waxing Crescent, 4% of the Moon is Illuminated
Mar 13
Waxing Crescent
Mar 19
First Quarter
Mar 27
Full
Apr 2
Last Quarter
Apr 10
New

Hourly Weather History & Observations

Time (CDT) Temp. Dew Point Humidity Pressure Visibility Wind Dir Wind Speed Gust Speed Precip Events Conditions
12:53 AM 53.1 °F 37.0 °F 55% 30.17 in 10.0 mi NNW 6.9 mph - N/A   Clear
1:53 AM 53.1 °F 37.0 °F 55% 30.17 in 10.0 mi NNW 8.1 mph - N/A   Clear
2:53 AM 52.0 °F 36.0 °F 54% 30.17 in 10.0 mi NNW 8.1 mph - N/A   Clear
3:53 AM 50.0 °F 36.0 °F 59% 30.19 in 10.0 mi North 5.8 mph - N/A   Clear
4:53 AM 48.9 °F 37.0 °F 64% 30.20 in 10.0 mi North 8.1 mph - N/A   Clear
5:53 AM 48.9 °F 37.0 °F 64% 30.22 in 10.0 mi North 5.8 mph - N/A   Clear
6:53 AM 48.0 °F 36.0 °F 63% 30.24 in 10.0 mi North 5.8 mph - N/A   Clear
7:53 AM 50.0 °F 37.0 °F 61% 30.27 in 10.0 mi North 6.9 mph - N/A   Clear
8:53 AM 54.0 °F 36.0 °F 51% 30.29 in 10.0 mi NNW 8.1 mph - N/A   Clear
9:53 AM 57.9 °F 37.0 °F 46% 30.30 in 10.0 mi NNW 5.8 mph - N/A   Clear
10:53 AM 63.0 °F 34.0 °F 34% 30.30 in 10.0 mi NNW 10.4 mph - N/A   Clear
11:53 AM 64.9 °F 32.0 °F 29% 30.28 in 10.0 mi NW 6.9 mph 17.3 mph N/A   Clear
12:53 PM 66.9 °F 32.0 °F 27% 30.27 in 10.0 mi NW 9.2 mph 20.7 mph N/A   Clear
1:53 PM 66.9 °F 32.0 °F 27% 30.23 in 10.0 mi NW 9.2 mph 18.4 mph N/A   Clear
2:53 PM 68.0 °F 30.0 °F 24% 30.21 in 10.0 mi NW 11.5 mph 18.4 mph N/A   Clear
3:53 PM 68.0 °F 26.1 °F 21% 30.20 in 10.0 mi NNW 17.3 mph 25.3 mph N/A   Clear
4:53 PM 68.0 °F 25.0 °F 20% 30.20 in 10.0 mi NNW 13.8 mph - N/A   Clear
5:53 PM 64.9 °F 21.0 °F 19% 30.21 in 10.0 mi NNW 17.3 mph 21.9 mph N/A   Clear
6:53 PM 62.1 °F 24.1 °F 23% 30.23 in 10.0 mi NNW 15.0 mph - N/A   Clear
7:53 PM 59.0 °F 21.0 °F 23% 30.25 in 10.0 mi NNW 15.0 mph - N/A   Overcast
8:53 PM 57.0 °F 24.1 °F 28% 30.27 in 9.0 mi NNW 10.4 mph - N/A   Clear
9:53 PM 55.0 °F 23.0 °F 29% 30.29 in 10.0 mi NNW 13.8 mph - N/A   Clear
10:53 PM 54.0 °F 24.1 °F 31% 30.32 in 10.0 mi NNW 11.5 mph - N/A   Clear
11:53 PM 53.1 °F 25.0 °F 34% 30.32 in 10.0 mi NNW 10.4 mph - N/A   Clear